TimeCST,TemperatureF,Dew PointF,Humidity,Sea Level PressureIn,VisibilityMPH,Wind Direction,Wind SpeedMPH,Gust SpeedMPH,PrecipitationIn,Events,Conditions,WindDirDegrees,DateUTC
12:56 AM,46.9,34.0,61,30.37,10.0,NNE,8.1,-,N/A,,Clear,30,2013-12-23 06:56:00
1:56 AM,45.0,32.9,63,30.39,10.0,North,5.8,-,N/A,,Clear,350,2013-12-23 07:56:00
2:56 AM,41.9,32.0,68,30.39,10.0,North,5.8,-,N/A,,Clear,360,2013-12-23 08:56:00
3:56 AM,41.9,30.0,63,30.41,10.0,NNE,6.9,-,N/A,,Clear,30,2013-12-23 09:56:00
4:56 AM,41.0,29.1,63,30.43,10.0,NNE,6.9,-,N/A,,Clear,30,2013-12-23 10:56:00
5:56 AM,39.9,29.1,65,30.44,10.0,Calm,Calm,-,N/A,,Clear,0,2013-12-23 11:56:00
6:56 AM,39.9,29.1,65,30.46,10.0,ENE,6.9,-,N/A,,Clear,60,2013-12-23 12:56:00
7:56 AM,38.8,29.1,68,30.48,10.0,NE,5.8,-,N/A,,Clear,50,2013-12-23 13:56:00
8:56 AM,43.9,30.0,58,30.49,10.0,NNE,6.9,-,N/A,,Clear,20,2013-12-23 14:56:00
9:56 AM,47.8,28.0,46,30.51,10.0,North,6.9,-,N/A,,Clear,10,2013-12-23 15:56:00
10:56 AM,52.9,26.1,35,30.51,10.0,North,8.1,-,N/A,,Clear,360,2013-12-23 16:56:00
11:56 AM,55.9,26.1,32,30.50,10.0,Variable,4.6,-,N/A,,Clear,0,2013-12-23 17:56:00
12:56 PM,57.9,27.1,31,30.47,10.0,Calm,Calm,-,N/A,,Clear,0,2013-12-23 18:56:00
1:56 PM,59.9,28.0,30,30.44,10.0,North,6.9,-,N/A,,Clear,350,2013-12-23 19:56:00
2:56 PM,61.0,29.1,30,30.43,10.0,Calm,Calm,-,N/A,,Clear,0,2013-12-23 20:56:00
3:01 PM,60.8,28.4,29,30.44,10.0,NNW,3.5,-,N/A,,Clear,330,2013-12-23 21:01:00
3:56 PM,63.0,29.1,28,30.43,10.0,North,5.8,-,N/A,,Clear,10,2013-12-23 21:56:00
4:56 PM,61.0,28.0,29,30.43,10.0,Calm,Calm,-,N/A,,Clear,0,2013-12-23 22:56:00
5:56 PM,57.9,28.0,32,30.45,10.0,Calm,Calm,-,N/A,,Clear,0,2013-12-23 23:56:00
6:56 PM,55.9,29.1,36,30.47,10.0,Calm,Calm,-,N/A,,Clear,0,2013-12-24 00:56:00
7:56 PM,52.9,29.1,40,30.49,10.0,Calm,Calm,-,N/A,,Clear,0,2013-12-24 01:56:00
8:56 PM,48.9,29.1,46,30.50,10.0,Calm,Calm,-,N/A,,Clear,0,2013-12-24 02:56:00
9:56 PM,48.9,27.1,43,30.51,10.0,ENE,8.1,-,N/A,,Clear,60,2013-12-24 03:56:00
10:56 PM,46.9,27.1,46,30.52,10.0,Calm,Calm,-,N/A,,Clear,0,2013-12-24 04:56:00
11:56 PM,43.9,32.0,63,30.51,10.0,Calm,Calm,-,N/A,,Clear,0,2013-12-24 05:56:00